Location: Auckland
(36.8670°S, 174.7670°E)
Time: 16:04:13
(UTC+12:00)

NOSS 2-1 (E) - Pass Details

Date: 30 April 2019
Orbit: 471 x 1733 km, 63.3° (Epoch: 21 May)

Event Time Altitude Azimuth Distance (km) Brightness Sun altitude
Rises 21:25:16 0° 209° (SSW) 4,600 8.5 -45.8°
Reaches altitude 10° 21:29:26 10° 196° (SSW) 3,398 7.6 -46.5°
Enters shadow 21:30:54 14° 188° (S) 3,012 7.2 -46.8°
